CAPE
7 16 15 6 9 8 7 5 5 4 1 0 0 0 0 0 0 2 0 0 0 0 0 0 0 0 0 0 0 0 0 0 0 0 0 0 0 0 0 0 0 0 8 150 34 243 435
13 12 7 18 12 8 10 7 2 2 2 4 1 0 0 0 0 0 0 0 0 0 0 0 0 0 0 0 0 0 0 0 0 0 0 0 0 0 0 0 0 53 149 345 419 456 270
16 17 12 7 5 11 8 2 2 2 2 3 3 1 0 0 0 0 0 1 1 0 0 0 0 0 0 0 0 0 0 0 0 0 0 0 0 0 0 0 30 121 188 236 305 332 188
12 15 14 15 12 5 5 9 3 2 2 2 2 3 0 0 0 0 0 0 0 0 0 0 0 0 0 0 0 0 0 0 0 0 0 0 0 0 0 0 13 111 135 123 145 154 119
6 8 7 11 13 12 6 10 9 4 2 1 2 1 1 0 0 0 0 0 0 0 0 0 0 0 0 0 0 0 0 0 0 0 0 0 0 0 0 0 46 54 52 32 48 45 68
6 4 4 2 3 9 14 11 13 5 5 3 1 2 1 1 0 0 0 0 0 0 0 0 0 0 0 0 0 0 0 0 0 0 0 0 0 0 0 0 22 35 15 10 22 19 5
14 9 5 0 0 0 0 19 17 13 4 5 3 2 2 3 0 0 0 0 0 0 0 0 0 0 0 0 0 0 0 0 0 0 0 0 0 0 0 0 0 0 12 29 33 1 0
1 14 10 2 0 0 0 0 1 16 12 13 4 2 0 4 0 0 3 0 0 0 0 0 0 0 0 0 0 0 0 0 0 0 0 0 0 0 0 0 0 1 10 14 11 0 0
0 0 5 13 7 1 2 0 0 2 20 5 9 4 3 2 0 0 0 0 0 0 0 0 0 0 0 0 0 0 0 0 0 0 0 0 0 0 0 0 0 0 2 0 0 0 0
2 3 2 5 17 13 3 1 0 0 2 9 0 6 0 3 0 0 0 0 0 0 0 0 0 0 0 0 0 0 0 0 0 0 0 0 0 0 0 0 0 4 0 0 0 0 37
2 3 3 3 5 19 19 4 0 0 0 0 9 0 5 3 2 3 1 0 0 0 0 0 0 0 0 0 0 0 0 0 0 0 0 0 0 0 0 0 0 2 0 0 0 0 0
5 6 7 6 6 6 25 20 3 0 0 0 0 7 2 3 13 2 1 1 0 2 0 0 0 0 0 0 0 0 0 0 0 0 0 0 0 0 0 0 0 0 0 0 0 0 1
2 0 0 1 3 4 8 30 16 3 0 0 0 1 14 15 5 1 1 2 8 0 0 0 0 0 0 0 0 0 0 0 0 0 0 0 0 0 0 0 0 0 3 26 9 1 8
3 8 9 9 7 8 10 12 17 17 6 0 0 0 2 17 3 10 14 22 0 0 0 0 0 0 0 0 0 0 0 0 0 0 0 0 0 0 0 0 0 0 5 23 2 3 9
13 13 12 8 13 40 36 18 26 32 25 0 2 0 3 16 8 16 16 3 0 0 0 0 0 0 0 0 0 0 0 0 0 0 0 0 0 0 0 0 0 0 0 0 0 0 0
44 50 51 53 44 42 49 47 16 23 39 2 1 16 8 6 29 12 1 0 0 0 0 0 0 0 1 0 0 0 0 0 0 0 0 0 0 0 0 0 0 1 1 0 0 0 0
43 44 45 48 55 44 32 40 27 26 42 5 6 14 13 23 1 11 3 0 0 0 0 0 16 0 0 0 0 0 0 0 0 0 0 0 0 0 0 0 8 0 0 0 8 0 2
40 43 44 31 40 51 24 21 26 31 40 9 13 1 6 20 1 5 3 0 0 0 6 0 0 32 34 0 0 0 0 0 0 0 0 0 0 0 0 0 0 8 22 37 4 13 0
24 28 33 30 28 39 43 24 19 38 28 6 3 14 21 7 6 1 3 0 0 0 0 0 0 0 33 48 0 0 0 0 0 0 0 0 0 0 0 0 0 0 0 14 8 2 1
16 12 31 25 28 35 33 35 21 38 19 2 5 1 15 20 1 0 19 8 2 1 0 0 0 0 21 35 25 1 0 0 0 0 0 0 0 0 0 0 0 0 0 0 0 3 0
6 0 15 25 25 36 36 41 18 39 15 0 5 0 0 7 6 9 6 1 5 8 0 0 0 0 2 34 54 32 0 0 0 0 0 0 0 0 0 0 0 0 0 0 0 0 0
17 10 9 17 34 24 29 28 21 37 9 0 0 16 12 1 5 4 19 15 5 3 0 0 0 0 0 25 53 14 0 0 22 0 0 0 0 0 0 0 0 0 0 0 0 0 0
18 13 9 11 14 16 23 31 24 38 2 1 9 0 15 1 20 17 4 2 12 11 3 0 0 0 0 1 36 0 0 0 0 2 0 0 0 0 0 0 0 0 0 0 0 0 0
40 25 21 15 7 16 34 29 23 36 2 0 1 11 13 3 21 3 6 4 4 17 12 17 2 0 0 1 7 0 0 0 0 0 0 0 0 0 0 0 0 0 0 0 0 0 0
21 21 26 10 9 9 26 41 15 31 4 1 2 4 7 3 0 0 7 6 4 20 34 25 14 0 0 0 0 0 0 0 0 0 0 2 11 1 0 0 0 0 0 0 0 0 0
13 10 11 16 10 13 21 39 11 29 4 5 9 1 12 4 0 0 28 11 4 10 22 39 70 12 0 5 3 0 0 0 0 7 0 0 0 38 0 6 0 0 0 0 0 0 0
22 0 21 21 5 13 12 40 22 17 3 5 8 1 11 8 12 19 13 25 0 17 17 23 52 22 7 1 0 0 0 0 0 8 8 0 0 5 13 3 0 0 0 0 0 0 0
1 0 11 19 10 25 13 23 23 8 3 3 3 0 3 8 22 25 28 46 23 8 6 1 48 18 1 0 0 3 0 1 0 0 0 1 13 2 2 0 0 0 0 0 0 0 0
3 2 10 2 13 9 0 8 25 6 3 2 5 1 8 16 15 8 1 7 1 54 56 62 0 11 19 1 3 0 0 0 0 0 3 0 2 20 0 10 52 0 0 0 0 0 0
CIN
0 -1 -2 -3 -2 -2 -1 -1 -5 -3 -4 -2 0 0 0 0 0 -2 -2 0 0 0 0 0 0 0 0 0 0 0 0 0 0 0 0 0 0 0 0 0 0 0 -46 -58 -116 -86 -61
-3 -5 -5 -1 -2 -3 -4 -2 -2 -1 -2 -2 -3 0 0 0 0 0 -1 0 0 0 0 0 0 0 0 0 0 0 0 0 0 0 0 0 0 0 0 0 0 -47 -47 -38 -51 -43 -67
-1 -2 -2 -4 -3 -2 -5 -6 -4 -3 -1 -1 -1 -4 0 0 0 0 0 -14 -9 0 0 0 0 0 0 0 0 0 0 0 0 0 0 0 0 0 0 0 -57 -36 -17 -21 -25 -29 -35
0 0 -3 -2 -5 -5 -11 -6 -5 -4 -5 -1 -1 -2 -2 0 0 0 0 0 0 0 0 0 0 0 0 0 0 0 0 0 0 0 0 0 0 0 0 0 -43 -14 -17 -3 -16 -29 -49
0 0 -1 0 -1 -4 -6 -9 -5 -7 -5 -3 -1 -1 -2 -1 0 0 0 0 0 0 0 0 0 0 0 0 0 0 0 0 0 0 0 0 0 0 0 0 -2 -4 -10 -2 -4 -28 -39
0 0 0 -1 -1 -2 -4 -7 -9 -9 -5 -2 -1 -1 -1 -3 0 0 0 0 0 0 0 0 0 0 0 0 0 0 0 0 0 0 0 0 0 0 0 0 -4 -4 -2 -6 -5 -9 -26
0 0 0 0 0 0 0 -2 -3 -6 -6 -7 -3 -2 -2 -3 0 0 0 0 0 0 0 0 0 0 0 0 0 0 0 0 0 0 0 0 0 0 0 0 0 0 -2 -3 -3 -1 0
0 0 0 0 0 0 0 0 -1 -3 -11 -5 -6 -2 -4 -3 0 0 0 0 0 0 0 0 0 0 0 0 0 0 0 0 0 0 0 0 0 0 0 0 0 -2 -2 -4 -4 0 0
0 0 0 0 0 0 0 0 0 -1 -8 -7 -9 -8 -6 -5 0 0 0 0 0 0 0 0 0 0 0 0 0 0 0 0 0 0 0 0 0 0 0 0 0 0 -1 0 -2 -1 0
0 0 0 0 0 0 -1 -1 0 0 -2 -10 -2 -11 -9 -7 0 0 0 0 0 0 0 0 0 0 0 0 0 0 0 0 0 0 0 0 0 0 0 0 0 -2 0 0 0 0 -5
0 0 0 0 0 0 0 -1 -1 0 0 0 -9 0 -9 -7 -3 0 -1 0 0 0 0 0 0 0 0 0 0 0 0 0 0 0 0 0 0 0 0 0 0 -2 0 0 0 0 0
0 0 0 0 0 0 0 0 -3 0 0 0 0 -16 -14 -6 -1 -1 0 0 0 -9 0 0 0 0 0 0 0 0 0 0 0 0 0 0 0 0 0 0 0 0 0 0 -6 -2 -1
-1 0 0 0 0 0 0 0 -1 -7 0 0 0 -11 -5 -1 0 0 -1 0 -1 0 0 0 0 0 0 0 0 0 0 0 0 0 0 0 0 0 0 0 0 0 -11 -4 -4 -3 -7
-1 -3 -2 -3 -1 0 0 0 -1 -3 -9 0 0 0 -6 0 -4 0 -9 0 0 0 0 0 0 0 0 0 0 0 0 0 0 0 0 0 0 0 0 0 0 0 -3 -3 -3 -2 -3
0 0 0 0 0 0 0 -2 -1 -1 -4 -2 -1 -1 -9 -1 -4 -1 -6 0 0 0 0 0 0 0 0 0 0 0 0 0 0 0 0 0 0 0 0 0 0 -3 0 0 -1 0 0
0 0 0 0 0 0 0 0 -2 -4 -4 -13 -2 0 -1 -24 -8 -3 -3 0 0 0 0 0 0 0 -33 0 0 0 0 0 0 0 0 0 0 0 0 0 0 -8 -8 0 -1 0 0
0 0 0 0 0 0 0 0 -1 -2 -3 -22 -3 0 -2 -14 -12 -4 -2 0 0 0 0 0 -42 0 0 0 0 0 0 0 0 0 0 0 0 0 0 0 -5 0 0 0 -16 -1 -2
0 0 0 0 0 0 0 -1 -1 -2 -2 -6 0 0 -1 -11 0 -14 0 0 0 0 -6 0 -2 -41 -52 0 0 0 0 0 0 0 0 0 0 0 0 0 -1 -7 -3 -5 -3 -5 0
0 0 0 0 0 0 0 0 -2 -1 -2 -1 0 0 -1 -5 0 0 -1 -3 0 0 0 0 0 0 -76 -50 0 0 0 0 0 0 0 0 0 0 0 0 0 0 0 -14 -20 -24 -2
0 0 0 0 0 0 0 0 0 0 -1 -2 -1 0 -1 0 -1 0 -1 -2 -3 -1 0 0 0 0 -68 -49 -68 -38 0 0 0 0 0 0 0 0 0 0 0 0 0 0 0 -12 0
-1 -1 0 0 0 0 0 0 0 0 0 -1 -1 0 0 0 -1 -1 -3 -4 -3 -3 0 0 0 0 -9 -28 -29 -43 0 0 0 0 0 0 0 0 0 0 0 0 0 0 0 0 0
-3 -1 -3 -1 0 0 0 0 0 0 -1 0 0 0 -1 -2 0 0 0 -1 -4 -4 0 0 0 0 0 -23 -38 -15 0 0 -76 -1 0 0 0 0 0 0 0 0 0 0 0 0 0
0 0 0 -1 -3 0 0 0 0 0 -1 0 -1 -1 -2 -1 -2 0 -1 -3 -3 -3 -4 0 0 0 0 -12 -81 -20 0 0 0 -54 0 0 0 0 0 0 0 0 0 0 0 0 0
0 0 0 -2 -1 -1 0 0 0 0 -1 0 -1 -2 -1 -2 -2 -2 -1 -3 -5 -6 -5 -2 -1 0 0 -88 -201 0 0 0 0 0 0 -21 0 -7 0 0 0 0 0 0 0 0 0
0 0 0 0 -2 -1 -3 0 -1 0 -1 -1 -1 -1 -1 -1 0 0 -3 -4 -2 -6 -2 -4 -2 0 0 0 -185 0 0 0 0 0 0 -90 -70 -9 0 0 0 0 0 0 0 0 0
-2 -1 0 -2 0 -1 -4 0 0 0 0 -1 -1 -2 -2 -1 0 0 -3 -2 -2 -3 -5 -1 -2 -7 -8 -115 -119 0 0 0 0 -68 0 0 -79 -53 0 -23 0 0 0 0 0 0 0
0 0 0 0 0 0 -3 0 0 0 0 -1 -1 -1 -2 -1 -2 -3 -5 -3 -4 -3 -15 -2 -4 -6 -3 -8 0 0 0 0 0 -17 -85 -32 0 -88 -62 -35 0 0 0 0 0 0 0
-2 -2 0 0 0 0 -5 0 0 0 0 -1 -2 0 -2 -1 -4 -3 -3 -2 -5 -4 -4 -1 -2 -2 -1 0 0 -37 -2 -10 0 0 0 -15 -52 -38 -32 0 0 0 0 0 0 0 0
-3 -1 0 0 0 0 -2 0 0 0 0 -1 0 -1 -2 -3 -5 -16 -2 -42 -1 -11 -3 -1 0 -1 -2 -1 -8 0 0 0 0 0 -78 0 -22 -11 -1 -17 -40 0 -7 0 0 0 0
Wind_Speed
36 35 35 35 35 35 34 35 35 35 35 34 34 35 35 36 36 35 34 35 36 35 36 37 36 36 30 25 19 14 13 10 9 9 10 12 12 11 10 11 10 8 3 21 18 14 16
37 37 37 36 36 36 35 35 35 36 36 36 35 35 35 36 36 36 36 35 36 36 38 37 35 32 26 26 16 12 10 10 9 9 10 11 13 11 10 10 9 13 9 13 14 15 16
38 37 37 38 37 37 37 36 35 35 36 36 36 35 35 35 35 35 36 37 38 37 38 37 32 25 26 23 14 8 8 8 8 8 10 10 10 10 11 11 13 13 12 10 13 17 19
39 39 39 39 39 39 38 38 37 37 37 36 37 36 35 35 36 36 36 37 38 38 37 33 22 21 27 17 12 8 4 4 6 7 8 10 11 9 9 12 11 10 10 9 13 17 17
38 38 38 39 40 39 39 38 38 37 36 36 36 36 36 35 35 36 36 38 39 36 28 21 19 20 29 15 16 7 2 3 4 6 8 10 10 9 9 9 9 8 8 9 11 13 16
39 38 38 38 38 38 39 40 39 38 37 36 35 35 36 35 35 36 36 37 36 24 20 19 20 23 21 19 14 9 1 2 6 7 10 8 8 7 7 9 11 8 7 9 14 12 17
40 39 39 38 38 38 38 38 39 39 38 36 34 34 34 35 34 34 34 27 26 25 22 24 21 22 20 20 15 10 3 1 1 3 5 7 7 7 7 10 9 10 13 16 16 18 20
43 42 41 40 39 39 38 37 37 38 37 36 35 34 34 33 33 32 29 26 25 25 36 28 32 41 31 25 23 13 5 4 2 4 4 6 6 8 9 9 13 14 17 19 17 13 20
44 44 43 42 40 40 39 39 38 37 37 37 35 33 33 33 32 29 27 27 23 26 32 34 27 34 27 17 23 16 7 7 6 7 4 9 10 8 9 7 12 14 15 19 20 20 20
45 44 44 43 42 40 39 38 37 37 36 37 37 35 32 32 31 26 26 21 24 21 34 33 28 29 20 17 24 14 10 8 9 9 4 4 3 7 7 8 16 16 13 22 21 19 15
45 44 43 42 42 40 39 38 37 37 36 36 36 37 35 29 30 25 21 20 17 20 39 21 20 16 18 15 16 15 9 13 9 5 1 5 4 7 8 11 5 21 10 7 21 20 20
44 43 42 41 40 39 37 35 35 35 35 35 35 36 34 33 32 26 20 25 17 28 39 26 18 19 20 21 21 10 14 15 11 7 6 1 6 6 8 6 6 11 9 13 16 13 7
44 43 42 41 40 38 37 34 33 33 33 33 34 35 35 30 30 23 24 22 31 39 23 29 24 19 22 20 22 16 16 15 12 9 9 5 4 4 7 10 6 5 10 14 12 5 6
47 46 43 41 38 36 34 32 31 31 31 31 33 33 36 35 31 27 23 28 42 35 35 19 22 22 23 18 23 19 17 17 17 11 9 8 7 6 6 11 6 8 2 16 13 14 11
47 46 44 42 40 37 36 32 27 25 26 31 31 34 36 35 33 28 31 44 46 39 30 36 26 24 27 22 22 19 19 18 16 14 13 8 6 5 2 4 8 3 4 16 18 20 22
38 39 37 35 33 30 29 29 28 24 22 22 31 34 39 34 31 31 39 55 46 39 33 26 36 26 26 25 22 21 20 21 17 15 12 15 15 9 4 3 4 4 3 4 8 16 17
39 41 37 32 31 29 28 26 25 24 22 18 29 35 32 34 33 39 52 53 49 36 33 31 29 32 28 23 26 24 23 19 18 17 16 15 18 13 6 2 3 1 4 2 8 11 18
46 45 42 38 35 31 30 28 27 25 23 20 21 39 28 29 45 45 57 48 39 47 36 32 30 26 28 27 27 28 28 25 15 15 19 14 20 20 11 9 6 2 5 9 7 1 10
45 45 45 45 42 37 32 30 28 29 29 23 20 32 24 32 51 56 56 53 49 41 46 35 34 31 26 27 28 30 28 25 18 15 18 15 22 20 18 13 10 6 3 6 4 0 6
45 41 42 45 44 43 38 34 32 33 33 25 22 27 33 40 49 59 53 52 58 52 43 44 34 30 29 30 29 26 29 23 22 19 20 15 21 18 23 18 13 4 8 7 9 10 9
46 45 47 44 44 44 42 39 36 36 38 29 27 22 26 43 51 59 58 50 54 53 53 42 44 37 33 31 28 27 24 23 21 22 21 22 30 24 23 24 23 11 4 4 7 11 13
40 46 49 49 45 43 45 44 40 40 42 33 31 24 21 36 48 56 58 64 58 56 44 51 48 39 32 34 27 26 21 19 22 22 22 22 28 21 21 19 18 19 12 11 6 6 7
31 29 47 54 50 46 47 45 43 44 46 35 31 30 22 34 46 51 62 62 61 50 56 50 46 40 44 39 21 21 21 21 23 22 23 25 27 24 28 20 21 25 13 9 8 5 6
43 43 45 57 48 49 51 45 46 48 50 35 30 27 26 31 44 50 55 61 59 54 54 41 44 44 31 24 26 27 31 29 28 27 27 26 27 27 31 23 32 19 17 10 11 9 6
38 58 43 57 61 38 48 49 48 50 51 39 30 32 28 30 39 55 49 53 58 53 51 50 41 44 34 31 35 37 35 38 39 36 29 26 23 26 28 30 30 20 15 13 12 10 9
31 42 63 37 34 35 37 43 43 50 50 40 34 31 29 29 49 44 50 48 54 55 49 47 38 25 25 27 32 42 40 38 32 28 24 23 25 26 24 32 35 22 16 12 16 16 23
40 54 56 39 38 37 36 39 40 50 49 39 35 35 30 21 36 40 49 46 47 50 51 38 34 33 30 35 36 38 37 30 38 32 28 27 26 30 29 33 28 19 16 10 16 19 19
47 51 38 39 38 38 36 40 42 49 48 37 35 37 34 30 27 31 35 42 46 49 50 43 36 36 33 35 36 33 35 30 32 35 31 27 28 29 29 33 35 15 14 16 19 20 19
34 46 36 40 38 36 35 42 46 48 47 35 33 33 37 34 27 24 25 28 30 39 40 35 44 35 32 35 33 32 32 30 31 37 28 38 30 28 25 28 21 10 19 19 23 23 21
Wind_Direction
301 304 302 300 300 301 300 300 300 301 301 303 303 302 302 301 302 305 306 308 308 313 311 314 321 322 331 329 337 353 360 35 70 70 59 63 56 72 81 80 67 131 182 286 291 346 347
301 300 299 302 299 298 300 299 298 299 299 299 302 304 302 302 301 302 304 305 307 309 305 308 316 321 324 319 350 9 15 43 52 70 63 69 55 85 109 86 89 33 43 345 322 332 339
300 300 299 297 297 298 297 297 298 298 298 299 300 301 304 304 303 302 302 302 303 304 303 307 314 323 315 316 342 3 4 25 61 61 55 73 74 98 58 58 30 35 75 40 333 310 310
299 298 296 296 295 294 295 295 294 294 294 296 297 299 302 302 304 301 301 302 302 302 301 308 319 318 305 324 338 337 1 31 68 73 61 74 74 105 106 23 45 50 58 86 2 315 310
300 299 298 297 293 293 292 293 294 292 292 293 293 295 299 301 302 303 302 300 298 302 309 316 317 313 297 325 315 324 157 7 45 63 67 63 79 78 80 115 105 79 95 76 27 354 321
299 298 298 298 296 294 291 290 289 292 290 291 292 292 293 297 299 301 301 301 301 309 313 311 307 303 297 305 319 329 46 133 20 52 34 60 76 75 84 119 143 85 88 85 183 18 310
297 297 297 296 296 295 294 291 288 286 288 288 289 291 292 293 296 297 301 307 304 300 298 289 297 291 302 305 310 302 312 321 73 29 60 58 86 82 84 134 143 143 161 191 195 217 221
297 295 294 293 293 292 292 291 289 286 284 284 285 287 288 291 293 295 297 298 299 303 291 289 280 262 279 292 286 284 283 222 248 161 42 56 126 66 52 88 147 151 186 215 205 150 232
296 295 293 291 290 290 290 288 288 286 282 281 281 284 285 287 291 290 288 291 302 302 291 286 284 273 278 265 272 269 241 223 208 175 146 158 46 72 97 76 143 167 182 203 208 246 199
295 294 293 291 288 287 287 286 285 284 282 278 277 278 281 284 282 283 285 294 301 298 287 284 281 275 273 270 267 254 238 238 275 188 160 148 104 112 111 136 162 167 147 203 226 245 265
294 293 292 290 289 286 284 283 283 282 280 277 273 271 273 274 277 275 286 296 305 297 276 289 284 290 273 245 275 234 221 252 207 256 242 143 93 126 143 150 66 237 355 70 254 269 275
292 291 290 288 287 286 283 281 280 279 278 276 273 267 268 268 265 269 278 287 282 275 266 279 284 276 263 254 260 239 233 256 257 257 278 178 23 67 83 53 87 336 354 325 305 324 66
290 288 287 285 283 282 281 276 276 276 275 274 271 263 259 258 259 265 265 270 261 256 277 268 273 274 261 253 252 240 208 205 217 204 196 190 172 37 94 113 54 31 325 310 324 12 56
287 286 284 282 280 278 276 272 269 271 270 270 267 262 254 252 255 263 255 251 252 259 248 281 277 265 260 250 250 242 217 210 198 220 256 193 186 171 132 158 121 145 23 300 321 314 332
286 284 281 279 277 274 271 268 260 259 264 264 264 258 252 248 246 252 244 242 247 248 258 254 269 266 255 251 254 244 231 211 211 220 255 228 244 344 91 91 132 65 131 297 300 297 295
281 281 277 272 268 264 262 261 257 249 249 257 258 256 250 242 241 241 240 241 245 247 251 260 249 259 255 248 250 244 238 242 219 215 237 279 273 296 334 70 347 332 351 99 316 311 311
278 279 273 266 262 255 253 254 246 239 233 237 253 255 252 237 232 236 235 239 240 244 246 249 255 250 255 252 245 247 251 260 218 235 235 262 274 288 298 243 163 25 146 74 337 331 312
280 275 269 264 259 251 244 242 240 226 218 222 247 249 248 228 225 235 234 235 242 238 244 250 251 254 253 254 250 247 247 249 250 224 229 231 267 272 284 317 304 247 183 175 174 75 326
280 274 267 262 257 252 242 234 226 218 203 220 244 249 252 227 228 231 235 237 237 240 236 243 246 250 255 255 255 250 253 255 257 238 233 222 257 267 278 294 303 293 208 194 191 170 208
280 271 267 261 253 248 242 230 221 208 200 217 240 247 243 234 233 229 233 236 233 236 240 238 246 249 250 252 255 260 252 258 251 249 248 227 255 257 269 282 298 254 229 228 211 219 227
282 275 270 259 253 244 236 230 219 206 194 215 229 240 234 234 231 229 230 235 233 232 233 236 239 242 244 248 253 254 261 254 255 251 252 247 254 264 271 280 287 295 279 270 220 218 218
282 273 265 260 253 241 234 227 215 204 191 218 227 238 208 245 232 228 229 230 231 230 233 232 235 237 243 244 252 248 260 256 255 252 252 254 257 265 270 278 286 291 296 297 237 229 229
255 252 263 253 249 244 232 224 212 202 192 225 228 227 224 240 233 229 228 228 230 232 233 235 235 239 239 240 254 258 264 267 264 262 256 257 255 264 267 281 286 285 284 281 291 282 248
239 230 222 236 245 238 230 220 208 201 196 223 217 214 231 242 233 231 230 228 230 233 231 236 233 235 245 246 258 263 260 262 264 263 263 263 259 262 265 274 271 292 302 288 283 289 265
238 232 217 216 213 229 228 220 207 200 195 217 213 217 233 239 237 229 231 230 228 233 234 232 237 240 248 251 250 251 254 256 256 260 261 259 262 263 262 267 279 295 299 299 301 293 304
253 230 222 210 213 213 214 214 197 197 191 215 215 221 233 236 234 235 230 229 224 227 231 231 232 242 235 241 242 242 245 247 253 257 260 258 261 262 268 267 271 292 297 303 310 302 310
258 248 216 204 199 207 206 196 198 189 188 210 218 219 226 229 240 233 229 230 224 225 225 226 227 232 234 236 240 242 246 252 245 252 253 254 259 257 264 271 282 297 304 308 298 308 318
248 235 212 193 188 197 196 186 191 183 184 205 216 218 223 236 246 244 237 229 224 224 222 226 226 232 230 234 238 242 245 250 253 249 255 260 260 262 266 270 273 296 297 289 301 313 317
234 212 189 180 180 186 185 177 188 178 181 203 212 218 223 230 244 250 247 241 238 230 223 223 224 226 233 233 240 245 249 250 253 254 259 255 261 268 272 279 290 276 296 291 298 305 309